"startDT [UTC]","vpos","CH4 [ppm]","stdev(CH4) [ppm]","CO2 [ppm]","stdev(CO2) [ppm]","H2O_reported [%]","stdev(H2O_reported)","CavityPressure [torr]","CavityTemp [C]","OutletValve","CH4_dry [ppm]","CO2_dry [ppm]","DasTemp [C]","EtalonTemp [C]","WarmBoxTemp [C]","MPVPosition","T_ECpre [C]","T_EC1 [C]","T_EC2 [C]","p_inlet [hPa]","p_in [hPa]","p_out [hPa]","T_inlet [C]","RH_inlet [%]","dwpt_inlet [C]","T_vent [C]","RH_vent [%]","dwpt_vent [C]","flow_vent [l min-1]","flow_inlet [l min-1]","dwpt_sample [C]","T_room [C]"
2015-05-22 00:00:00,3.0,1.87810,0.00984,399.232,2.197,0.0822,0.1112,139.746,45.000,31273.76911,1.88145,399.874,31.944,45.068,45.000,0.00,0.09,-272.73,-272.78,1,494,-1,19.9,9.8,-12.8,19.9,10.0,-12.7,5.73,1.95,-9.9,25.0
2015-05-22 00:01:00,3.0,1.87606,0.00027,397.047,0.061,0.0175,0.0017,139.993,45.000,31077.94307,1.87638,397.132,31.959,45.068,45.000,0.00,0.09,-272.72,-272.78,2,494,-1,19.9,9.8,-12.8,19.9,10.0,-12.7,5.73,1.95,-9.9,25.0
2015-05-22 00:02:00,3.0,1.87592,0.00038,397.158,0.106,0.0170,0.0021,140.000,45.000,31030.75538,1.87623,397.234,31.982,45.068,45.000,0.00,0.09,-272.72,-272.78,2,494,-1,19.9,9.7,-13.0,19.9,9.8,-12.8,5.73,1.91,-9.9,25.0
2015-05-22 00:03:00,3.0,1.87590,0.00018,397.413,0.039,0.0158,0.0018,139.997,45.000,30991.23581,1.87617,397.486,31.980,45.069,45.000,0.00,0.09,-272.73,-272.78,1,494,-1,19.9,9.6,-13.1,19.9,9.8,-13.0,5.73,1.92,-9.9,25.0
2015-05-22 00:04:00,3.0,1.87608,0.00029,397.504,0.024,0.0121,0.0017,140.000,45.000,30957.83089,1.87631,397.559,31.988,45.068,45.000,0.00,0.09,-272.72,-272.78,1,495,-1,19.9,9.6,-13.2,19.9,9.7,-13.0,5.73,1.97,-9.9,25.0
2015-05-22 00:05:00,3.0,1.87610,0.00033,397.525,0.027,0.0104,0.0029,139.998,45.000,30929.32262,1.87628,397.575,31.997,45.069,45.000,0.00,0.09,-272.71,-272.77,1,495,-1,19.9,9.6,-13.1,19.9,9.7,-13.0,5.73,2.02,-9.9,25.0
2015-05-22 00:06:00,3.0,1.87628,0.00031,397.544,0.025,0.0076,0.0021,140.000,45.000,30908.67060,1.87643,397.582,31.991,45.068,45.000,0.00,0.09,-272.73,-272.78,1,495,-1,19.9,9.6,-13.1,19.9,9.7,-13.0,5.73,2.02,-9.9,25.0
2015-05-22 00:07:00,3.0,1.87628,0.00034,397.567,0.028,0.0059,0.0014,139.999,45.000,30890.66823,1.87637,397.593,32.000,45.068,45.000,0.00,0.09,-272.72,-272.79,0,495,-1,19.9,9.6,-13.1,19.9,9.7,-12.9,5.73,1.98,-9.9,25.0
2015-05-22 00:08:00,3.0,1.87618,0.00029,397.564,0.025,0.0056,0.0012,139.997,45.000,30876.89185,1.87632,397.591,32.000,45.068,45.000,0.00,0.09,-272.72,-272.78,1,495,-1,20.0,9.6,-13.1,19.9,9.7,-12.9,5.73,1.92,-9.9,25.0
2015-05-22 00:09:00,3.0,1.87620,0.00016,397.589,0.028,0.0040,0.0022,140.000,45.000,30865.51171,1.87626,397.607,32.000,45.068,45.000,0.00,0.09,-272.72,-272.78,1,496,-1,20.0,9.7,-13.0,19.9,9.8,-12.9,5.73,1.91,-9.9,25.0
2015-05-22 00:10:00,3.0,1.87635,0.00034,397.570,0.017,0.0037,0.0022,139.993,45.000,30853.55273,1.87639,397.588,32.001,45.068,45.000,0.00,0.09,-272.73,-272.78,1,496,-1,20.0,9.7,-13.0,19.9,9.8,-12.9,5.73,1.95,-9.9,25.0
2015-05-22 00:11:00,3.0,1.87640,0.00035,397.574,0.028,0.0039,0.0020,139.999,45.000,30847.67758,1.87651,397.592,32.007,45.068,45.000,0.00,0.09,-272.73,-272.77,1,496,-1,20.0,9.7,-12.9,20.0,9.8,-12.8,5.73,2.00,-9.9,24.9
2015-05-22 00:12:00,3.0,1.87637,0.00021,397.584,0.019,0.0020,0.0018,140.000,45.000,30842.04713,1.87639,397.594,32.013,45.069,45.000,0.00,0.09,-272.72,-272.77,1,496,-1,20.1,9.6,-13.0,20.0,9.8,-12.8,5.73,2.01,-9.9,25.0
2015-05-22 00:13:00,3.0,1.87658,0.00031,397.594,0.038,0.0031,0.0025,139.998,45.000,30833.69615,1.87662,397.609,32.024,45.069,45.000,0.00,0.09,-272.73,-272.78,1,497,-1,20.1,9.7,-12.9,20.0,9.8,-12.8,5.73,1.96,-9.9,25.0
2015-05-22 00:14:00,3.0,1.87670,0.00042,397.576,0.032,0.0026,0.0019,140.000,45.000,30831.99706,1.87678,397.587,32.048,45.069,45.000,0.00,0.09,-272.73,-272.78,1,497,-1,20.1,9.7,-12.9,20.0,9.8,-12.8,5.73,1.90,-9.9,25.0
2015-05-22 00:15:00,3.0,1.87657,0.00025,397.590,0.029,0.0020,0.0022,140.001,45.000,30829.22991,1.87661,397.599,32.042,45.068,45.000,0.00,0.09,-272.71,-272.77,1,497,-1,20.1,9.7,-12.8,20.0,9.9,-12.7,5.73,1.91,-9.9,25.0
2015-05-22 00:16:00,3.0,1.87640,0.00033,397.596,0.026,0.0006,0.0015,140.003,45.000,30829.07916,1.87642,397.600,32.030,45.068,45.000,0.00,0.09,-272.72,-272.78,1,498,-1,20.1,9.7,-12.8,20.0,9.9,-12.7,5.73,1.96,-9.9,25.0
2015-05-22 00:17:00,3.0,1.87654,0.00026,397.588,0.031,0.0012,0.0014,139.999,45.000,30826.24858,1.87655,397.592,32.035,45.068,45.000,0.00,0.09,-272.73,-272.78,2,498,-1,20.1,9.7,-12.8,20.0,9.9,-12.7,5.73,2.01,-9.8,25.0
2015-05-22 00:18:00,3.0,1.87652,0.00046,397.608,0.027,0.0019,0.0020,139.999,45.000,30821.95900,1.87655,397.619,32.049,45.068,45.000,0.00,0.09,-272.72,-272.77,2,498,-1,20.1,9.7,-12.8,20.0,9.9,-12.7,5.73,2.01,-9.9,25.0
2015-05-22 00:19:00,3.0,1.87657,0.00028,397.614,0.029,0.0019,0.0016,139.998,45.000,30822.05168,1.87666,397.624,32.052,45.068,45.000,0.00,0.09,-272.72,-272.77,2,498,-1,20.1,9.8,-12.7,20.0,9.9,-12.6,5.73,1.95,-9.9,25.0
2015-05-22 00:20:00,0.0,1.90429,0.00492,403.038,1.865,0.2569,0.0878,140.175,45.000,33589.05183,1.90725,404.055,32.040,45.068,45.000,0.00,0.09,-272.72,-272.79,2,956,-1,20.1,9.8,-12.7,20.1,10.0,-12.5,5.73,1.95,-9.8,25.0
2015-05-22 00:21:00,0.0,1.90442,0.00034,403.769,0.029,0.3035,0.0013,140.001,45.000,33811.20073,1.91015,405.253,32.052,45.068,45.000,0.00,0.09,-272.72,-272.79,1,957,-1,20.1,9.8,-12.7,20.1,10.0,-12.5,5.73,2.00,-9.9,25.1
2015-05-22 00:22:00,0.0,1.90431,0.00041,403.782,0.029,0.3042,0.0018,140.003,45.000,33863.16535,1.91006,405.270,32.060,45.068,45.000,0.00,0.09,-272.72,-272.79,2,957,-1,20.1,9.7,-12.8,20.1,9.9,-12.6,5.73,2.07,-9.8,25.1
2015-05-22 00:23:00,0.0,1.90426,0.00031,403.787,0.023,0.3051,0.0024,140.006,45.000,33908.17262,1.91003,405.282,32.059,45.068,45.000,0.00,0.09,-272.72,-272.78,2,958,-1,20.1,9.7,-12.8,20.1,9.9,-12.6,5.73,1.96,-9.8,25.1
2015-05-22 00:24:00,0.0,1.90441,0.00034,403.782,0.029,0.3051,0.0022,140.002,45.000,33945.47872,1.91017,405.277,32.052,45.068,45.000,0.00,0.09,-272.72,-272.78,1,959,-1,20.2,9.8,-12.7,20.1,9.9,-12.6,5.73,1.91,-9.8,25.1
2015-05-22 00:25:00,0.0,1.90436,0.00034,403.771,0.035,0.3063,0.0015,140.001,45.000,33977.44709,1.91015,405.270,32.015,45.068,45.000,0.00,0.09,-272.72,-272.78,2,957,-1,20.2,9.8,-12.7,20.1,9.9,-12.6,5.73,1.99,-9.8,25.1
2015-05-22 00:26:00,0.0,1.90425,0.00031,403.759,0.030,0.3074,0.0018,140.002,45.000,34004.95792,1.91003,405.264,31.999,45.068,45.000,0.00,0.09,-272.73,-272.77,1,959,-1,20.2,9.8,-12.7,20.1,10.0,-12.6,5.73,2.05,-9.8,25.1
2015-05-22 00:27:00,0.0,1.90433,0.00035,403.760,0.032,0.3094,0.0021,139.999,45.000,34028.19397,1.91015,405.275,31.968,45.068,45.000,0.00,0.09,-272.73,-272.79,1,959,-1,20.2,9.8,-12.6,20.1,10.0,-12.5,5.73,2.02,-9.8,25.1
2015-05-22 00:28:00,0.0,1.90429,0.00030,403.724,0.030,0.3094,0.0021,139.999,45.000,34049.60556,1.91017,405.239,31.944,45.068,45.000,0.00,0.09,-272.72,-272.78,1,960,-1,20.2,9.8,-12.6,20.1,10.0,-12.5,5.73,1.97,-9.8,25.1
2015-05-22 00:29:00,0.0,1.90402,0.00050,403.749,0.030,0.3131,0.0014,140.002,44.999,34063.74937,1.90996,405.283,31.932,45.068,45.000,0.00,0.09,-272.72,-272.77,1,961,-1,20.2,9.9,-12.5,20.1,10.1,-12.4,5.73,1.94,-9.8,25.1
2015-05-22 00:30:00,0.0,1.90411,0.00022,403.745,0.028,0.3138,0.0019,139.996,45.000,34074.60764,1.91003,405.280,31.893,45.068,45.000,0.00,0.09,-272.71,-272.78,1,962,-1,20.2,9.9,-12.5,20.1,10.1,-12.4,5.73,1.96,-9.8,25.1
2015-05-22 00:31:00,0.0,1.90420,0.00035,403.738,0.020,0.3140,0.0022,139.998,45.000,34087.37147,1.91014,405.275,31.877,45.068,45.000,0.00,0.09,-272.72,-272.78,1,962,-1,20.2,9.9,-12.5,20.1,10.1,-12.4,5.73,2.01,-9.8,25.1
2015-05-22 00:32:00,0.0,1.90398,0.00033,403.745,0.026,0.3159,0.0023,140.002,45.000,34100.20667,1.91000,405.292,31.875,45.069,45.000,0.00,0.09,-272.72,-272.77,0,964,-1,20.2,10.0,-12.4,20.0,10.1,-12.3,5.73,2.04,-9.8,25.1
2015-05-22 00:33:00,0.0,1.90402,0.00030,403.750,0.031,0.3140,0.0021,139.999,45.000,34108.33247,1.90994,405.286,31.859,45.068,45.000,0.00,0.09,-272.72,-272.78,0,965,-1,20.2,10.0,-12.5,20.0,10.1,-12.3,5.73,2.03,-9.8,25.1
2015-05-22 00:34:00,0.0,1.90390,0.00038,403.736,0.044,0.3173,0.0020,140.002,45.000,34117.56997,1.90987,405.291,31.863,45.068,45.000,0.00,0.09,-272.72,-272.78,0,966,-1,20.2,10.0,-12.4,20.0,10.2,-12.3,5.73,1.98,-9.8,25.1
2015-05-22 00:35:00,0.0,1.90433,0.00028,403.722,0.038,0.3169,0.0018,139.996,45.000,34122.25644,1.91031,405.274,31.862,45.068,45.000,0.00,0.09,-272.71,-272.78,1,965,-1,20.2,10.0,-12.4,20.0,10.2,-12.2,5.73,1.94,-9.8,25.1
2015-05-22 00:36:00,0.0,1.90395,0.00034,403.725,0.030,0.3193,0.0023,140.003,45.000,34130.27307,1.91005,405.289,31.840,45.068,45.000,0.00,0.09,-272.72,-272.77,1,964,-1,20.2,10.0,-12.4,20.0,10.3,-12.2,5.73,1.94,-9.8,25.1
2015-05-22 00:37:00,0.0,1.90414,0.00038,403.724,0.028,0.3188,0.0015,139.999,45.000,34129.84643,1.91014,405.287,31.865,45.068,45.000,0.00,0.09,-272.73,-272.79,1,964,-1,20.2,10.0,-12.3,20.0,10.3,-12.2,5.73,1.98,-9.8,25.0
2015-05-22 00:38:00,0.0,1.90399,0.00047,403.719,0.037,0.3170,0.0014,139.998,45.000,34130.66926,1.90994,405.271,31.873,45.068,45.000,0.00,0.09,-272.73,-272.78,1,964,-1,20.2,10.0,-12.4,20.0,10.2,-12.2,5.73,2.04,-9.8,25.0
2015-05-22 00:39:00,0.0,1.90417,0.00028,403.749,0.034,0.3167,0.0010,139.998,45.000,34131.67900,1.91017,405.299,31.887,45.068,45.000,0.00,0.09,-272.72,-272.76,1,963,-1,20.2,10.0,-12.4,20.0,10.2,-12.2,5.73,2.03,-9.8,25.1
2015-05-22 00:40:00,0.0,1.90404,0.00047,403.739,0.032,0.3195,0.0023,140.001,45.000,34132.54762,1.91012,405.304,31.911,45.068,45.000,0.00,0.09,-272.73,-272.77,1,965,-1,20.2,10.0,-12.3,20.1,10.3,-12.2,5.73,1.94,-9.8,25.1
2015-05-22 00:41:00,0.0,1.90439,0.00047,403.742,0.034,0.3203,0.0017,139.994,45.000,34129.86051,1.91042,405.311,31.940,45.068,45.000,0.00,0.09,-272.72,-272.78,1,963,-1,20.2,10.1,-12.3,20.1,10.3,-12.1,5.73,1.92,-9.8,25.1
2015-05-22 00:42:00,0.0,1.90434,0.00025,403.737,0.032,0.3172,0.0017,139.995,45.000,34131.60996,1.91032,405.292,31.980,45.068,45.000,0.00,0.09,-272.72,-272.78,0,962,-1,20.2,10.0,-12.4,20.1,10.2,-12.2,5.73,2.01,-9.8,25.1
2015-05-22 00:43:00,0.0,1.90435,0.00032,403.754,0.028,0.3177,0.0020,139.995,45.000,34133.10909,1.91034,405.309,32.006,45.068,45.000,0.00,0.09,-272.72,-272.78,1,960,-1,20.2,10.0,-12.4,20.1,10.2,-12.3,5.73,2.06,-9.8,25.1
2015-05-22 00:44:00,0.0,1.90412,0.00033,403.756,0.035,0.3175,0.0019,140.002,45.000,34137.49597,1.91012,405.312,32.023,45.068,45.000,0.00,0.09,-272.72,-272.78,1,962,-1,20.2,10.0,-12.4,20.1,10.2,-12.3,5.73,1.99,-9.7,25.1
2015-05-22 00:45:00,0.0,1.90434,0.00042,403.721,0.043,0.3193,0.0017,140.001,45.000,34136.42340,1.91039,405.284,32.053,45.068,45.000,0.00,0.09,-272.71,-272.78,1,962,-1,20.2,10.0,-12.4,20.1,10.2,-12.2,5.73,1.90,-9.8,25.1
2015-05-22 00:46:00,0.0,1.90410,0.00027,403.712,0.036,0.3188,0.0023,139.997,45.000,34136.35959,1.91017,405.276,32.063,45.068,45.000,0.00,0.09,-272.72,-272.77,1,962,-1,20.2,10.1,-12.3,20.1,10.3,-12.2,5.73,1.96,-9.7,25.1
2015-05-22 00:47:00,0.0,1.90429,0.00043,403.715,0.028,0.3189,0.0021,140.000,45.000,34138.25598,1.91027,405.275,32.068,45.068,45.000,0.00,0.09,-272.73,-272.78,1,960,-1,20.2,10.0,-12.3,20.1,10.2,-12.2,5.73,2.06,-9.7,25.1
2015-05-22 00:48:00,0.0,1.90446,0.00039,403.746,0.048,0.3211,0.0018,139.996,45.000,34134.81272,1.91058,405.321,32.096,45.068,45.000,0.00,0.09,-272.72,-272.78,1,960,-1,20.2,10.1,-12.3,20.1,10.3,-12.2,5.73,2.04,-9.8,25.1
2015-05-22 00:49:00,0.0,1.90408,0.00027,403.701,0.032,0.3226,0.0017,140.001,45.000,34140.99747,1.91017,405.280,32.088,45.068,45.000,0.00,0.09,-272.71,-272.78,2,960,-1,20.2,10.1,-12.2,20.1,10.3,-12.1,5.73,1.93,-9.8,25.2
2015-05-22 00:50:00,0.0,1.90405,0.00022,403.717,0.019,0.3206,0.0020,139.998,45.000,34140.89691,1.91009,405.287,32.078,45.068,45.000,0.00,0.09,-272.72,-272.78,1,962,-1,20.2,10.1,-12.2,20.1,10.3,-12.1,5.73,1.91,-9.8,25.2
2015-05-22 00:51:00,0.0,1.90404,0.00037,403.701,0.032,0.3231,0.0013,139.998,45.000,34143.70165,1.91021,405.284,32.063,45.068,45.000,0.00,0.09,-272.72,-272.79,1,962,-1,20.2,10.1,-12.2,20.1,10.3,-12.1,5.73,2.00,-9.7,25.2
2015-05-22 00:52:00,0.0,1.90403,0.00043,403.707,0.030,0.3222,0.0017,139.999,45.000,34146.43358,1.91009,405.285,32.059,45.068,45.000,0.00,0.09,-272.73,-272.77,1,963,-1,20.2,10.1,-12.3,20.1,10.3,-12.1,5.73,2.03,-9.7,25.2
2015-05-22 00:53:00,0.0,1.90398,0.00046,403.709,0.033,0.3210,0.0021,139.996,45.000,34149.17672,1.91007,405.284,32.037,45.068,45.000,0.00,0.09,-272.73,-272.77,1,963,-1,20.3,10.1,-12.2,20.1,10.3,-12.1,5.73,2.00,-9.7,25.1
2015-05-22 00:54:00,0.0,1.90371,0.00047,403.724,0.028,0.3197,0.0018,139.999,45.000,34154.50077,1.90975,405.287,32.001,45.068,45.000,0.00,0.09,-272.73,-272.78,1,963,-1,20.3,10.0,-12.3,20.1,10.3,-12.1,5.73,1.96,-9.7,25.1
2015-05-22 00:55:00,0.0,1.90337,0.00030,403.695,0.017,0.3199,0.0017,139.999,45.000,34160.79036,1.90942,405.264,31.985,45.069,45.000,0.00,0.09,-272.72,-272.78,1,963,-1,20.3,10.0,-12.3,20.1,10.2,-12.1,5.73,1.94,-9.7,25.1
2015-05-22 00:56:00,0.0,1.90348,0.00031,403.685,0.033,0.3172,0.0020,140.000,45.000,34160.16580,1.90945,405.239,31.947,45.069,45.000,0.00,0.09,-272.72,-272.77,1,964,-1,20.3,9.9,-12.4,20.1,10.2,-12.3,5.73,1.95,-9.7,25.1
2015-05-22 00:57:00,0.0,1.90348,0.00042,403.678,0.034,0.3147,0.0019,139.999,45.000,34161.28664,1.90942,405.218,31.938,45.069,45.000,0.00,0.09,-272.73,-272.78,-0,965,-1,20.3,9.8,-12.5,20.1,10.1,-12.4,5.73,1.98,-9.7,25.1
2015-05-22 00:58:00,0.0,1.90353,0.00024,403.724,0.038,0.3129,0.0016,139.997,45.000,34158.78110,1.90948,405.258,31.938,45.069,45.000,0.00,0.09,-272.72,-272.77,0,966,-1,20.3,9.8,-12.6,20.1,10.0,-12.4,5.73,2.01,-9.7,25.1
2015-05-22 00:59:00,0.0,1.90354,0.00037,403.690,0.028,0.3114,0.0014,139.999,45.000,34160.34178,1.90942,405.214,31.925,45.068,45.000,0.00,0.09,-272.71,-272.77,0,966,-1,20.3,9.7,-12.6,20.1,10.0,-12.5,5.73,2.02,-9.7,25.1
2015-05-22 01:00:00,0.0,1.90327,0.00043,403.686,0.024,0.3124,0.0020,139.992,45.000,34162.51914,1.90917,405.216,31.914,45.068,45.000,0.00,0.09,-272.72,-272.78,1,965,-1,20.3,9.7,-12.6,20.1,10.0,-12.5,5.73,2.02,-9.7,25.2
2015-05-22 01:01:00,0.0,1.90328,0.00044,403.708,0.036,0.3103,0.0014,139.998,45.000,34162.39837,1.90910,405.226,31.893,45.068,45.000,0.00,0.09,-272.72,-272.78,-0,966,-1,20.3,9.7,-12.7,20.1,9.9,-12.6,5.73,2.01,-9.7,25.1
2015-05-22 01:02:00,0.0,1.90324,0.00038,403.707,0.032,0.3096,0.0012,139.996,45.000,34162.54231,1.90915,405.222,31.878,45.068,45.000,0.00,0.09,-272.72,-272.78,-1,967,-1,20.3,9.7,-12.7,20.1,9.9,-12.6,5.73,1.98,-9.7,25.1
2015-05-22 01:03:00,0.0,1.90352,0.00038,403.700,0.019,0.3092,0.0016,140.000,45.000,34164.66475,1.90930,405.214,31.875,45.068,45.000,0.00,0.09,-272.72,-272.78,0,967,-1,20.3,9.7,-12.7,20.1,9.9,-12.6,5.73,1.94,-9.7,25.2
2015-05-22 01:04:00,0.0,1.90359,0.00040,403.693,0.035,0.3103,0.0012,139.997,45.000,34162.78361,1.90950,405.213,31.875,45.068,45.000,0.00,0.09,-272.73,-272.79,0,966,-1,20.3,9.7,-12.7,20.1,9.9,-12.6,5.73,1.95,-9.7,25.1
2015-05-22 01:05:00,0.0,1.90328,0.00042,403.669,0.040,0.3114,0.0018,140.004,45.000,34165.50152,1.90915,405.194,31.875,45.068,45.000,0.00,0.09,-272.72,-272.78,0,966,-1,20.3,9.7,-12.7,20.1,9.9,-12.5,5.73,1.98,-9.7,25.2
2015-05-22 01:06:00,0.0,1.90326,0.00028,403.675,0.025,0.3124,0.0014,140.003,45.000,34162.65342,1.90918,405.206,31.891,45.068,45.000,0.00,0.09,-272.72,-272.77,0,965,-1,20.3,9.8,-12.6,20.1,10.0,-12.5,5.73,2.03,-9.7,25.1
2015-05-22 01:07:00,0.0,1.90326,0.00036,403.690,0.027,0.3125,0.0024,139.995,45.000,34160.57237,1.90913,405.218,31.926,45.068,45.000,0.00,0.09,-272.73,-272.78,0,965,-1,20.3,9.8,-12.6,20.1,10.0,-12.5,5.73,2.06,-9.7,25.2
2015-05-22 01:08:00,0.0,1.90340,0.00029,403.719,0.029,0.3129,0.0009,139.999,45.000,34158.11524,1.90929,405.252,31.939,45.068,45.000,0.00,0.09,-272.73,-272.78,0,964,-1,20.3,9.8,-12.6,20.1,10.0,-12.5,5.73,2.00,-9.7,25.2
2015-05-22 01:09:00,0.0,1.90359,0.00026,403.695,0.034,0.3126,0.0013,140.000,45.000,34156.30808,1.90947,405.225,31.987,45.069,45.000,0.00,0.09,-272.73,-272.77,1,963,-1,20.2,9.8,-12.6,20.1,10.0,-12.5,5.73,1.92,-9.7,25.3
2015-05-22 01:10:00,0.0,1.90336,0.00022,403.687,0.039,0.3124,0.0014,139.997,45.001,34155.78384,1.90929,405.219,32.021,45.068,45.000,0.00,0.09,-272.72,-272.78,1,964,-1,20.3,9.8,-12.6,20.1,10.0,-12.4,5.73,1.96,-9.7,25.2
2015-05-22 01:11:00,0.0,1.90317,0.00045,403.685,0.030,0.3129,0.0018,139.999,45.001,34155.38020,1.90909,405.217,32.063,45.068,45.000,0.00,0.09,-272.72,-272.78,0,965,-1,20.2,9.8,-12.6,20.1,10.0,-12.5,5.73,2.04,-9.7,25.2
2015-05-22 01:12:00,0.0,1.90313,0.00035,403.669,0.027,0.3154,0.0010,140.003,45.000,34158.22362,1.90911,405.211,32.088,45.068,45.000,0.00,0.09,-272.72,-272.78,0,964,-1,20.2,9.9,-12.5,20.1,10.0,-12.4,5.73,2.04,-9.7,25.3
2015-05-22 01:13:00,0.0,1.90332,0.00038,403.680,0.039,0.3137,0.0019,140.001,45.000,34157.86830,1.90921,405.216,32.106,45.068,44.999,0.00,0.09,-272.73,-272.79,0,964,-1,20.2,9.9,-12.5,20.1,10.0,-12.4,5.73,1.96,-9.7,25.3
2015-05-22 01:14:00,0.0,1.90340,0.00026,403.697,0.034,0.3116,0.0018,139.998,45.000,34157.66919,1.90929,405.225,32.115,45.068,45.000,0.00,0.09,-272.72,-272.78,0,963,-1,20.2,9.8,-12.6,20.1,10.0,-12.5,5.73,1.93,-9.7,25.3
2015-05-22 01:15:00,0.0,1.90330,0.00036,403.685,0.033,0.3118,0.0020,139.998,45.000,34158.68227,1.90919,405.213,32.107,45.068,44.999,0.00,0.09,-272.72,-272.78,1,962,-1,20.2,9.8,-12.6,20.1,10.0,-12.5,5.73,1.99,-9.7,25.3
2015-05-22 01:16:00,0.0,1.90304,0.00023,403.680,0.027,0.3128,0.0020,140.001,45.000,34161.38448,1.90897,405.210,32.096,45.068,45.000,0.00,0.09,-272.72,-272.77,1,961,-1,20.2,9.8,-12.6,20.1,10.0,-12.5,5.73,2.05,-9.7,25.3
2015-05-22 01:17:00,0.0,1.90342,0.00049,403.710,0.023,0.3128,0.0017,139.998,45.000,34158.56435,1.90928,405.242,32.117,45.068,45.000,0.00,0.09,-272.72,-272.79,1,961,-1,20.2,9.8,-12.6,20.1,10.0,-12.4,5.73,2.02,-9.7,25.3
2015-05-22 01:18:00,0.0,1.90347,0.00032,403.783,0.049,0.3133,0.0022,140.002,45.000,34157.41241,1.90943,405.314,32.122,45.068,45.000,0.00,0.09,-272.72,-272.79,1,963,-1,20.2,9.8,-12.6,20.2,10.0,-12.4,5.73,1.93,-9.7,25.2
2015-05-22 01:19:00,0.0,1.90309,0.00031,403.918,0.125,0.3134,0.0019,140.001,45.000,34157.38506,1.90903,405.442,32.123,45.068,45.000,0.00,0.09,-272.72,-272.77,1,963,-1,20.2,9.8,-12.6,20.1,10.0,-12.4,5.73,1.92,-9.7,25.2
2015-05-22 01:20:00,0.0,1.90333,0.00030,404.213,0.142,0.3082,0.0029,140.000,45.000,34154.86466,1.90913,405.735,32.125,45.069,45.000,0.00,0.09,-272.73,-272.77,1,963,-1,20.2,9.7,-12.7,20.1,9.9,-12.5,5.73,2.02,-9.7,25.3
2015-05-22 01:21:00,0.0,1.90353,0.00038,403.940,0.058,0.3025,0.0015,139.996,45.000,34152.10057,1.90923,405.425,32.125,45.069,45.000,0.00,0.09,-272.72,-272.78,1,961,-1,20.2,9.5,-13.0,20.2,9.8,-12.7,5.73,2.06,-9.7,25.2
2015-05-22 01:22:00,0.0,1.90361,0.00030,403.952,0.072,0.3009,0.0019,139.999,45.000,34152.61643,1.90930,405.423,32.105,45.069,45.000,0.00,0.09,-272.72,-272.78,1,960,-1,20.2,9.5,-13.1,20.2,9.6,-12.9,5.73,1.97,-9.7,25.3
2015-05-22 01:23:00,0.0,1.90372,0.00041,404.121,0.100,0.3038,0.0023,140.004,45.000,34153.99909,1.90949,405.599,32.094,45.069,45.000,0.00,0.09,-272.72,-272.77,1,962,-1,20.2,9.5,-13.0,20.1,9.7,-12.8,5.73,1.90,-9.7,25.3
2015-05-22 01:24:00,0.0,1.90366,0.00036,404.416,0.146,0.3062,0.0018,140.004,45.000,34154.48809,1.90942,405.918,32.065,45.069,45.000,0.00,0.09,-272.71,-272.78,1,963,-1,20.3,9.6,-12.8,20.2,9.8,-12.7,5.73,1.96,-9.7,25.2
2015-05-22 01:25:00,0.0,1.90360,0.00026,404.191,0.061,0.3033,0.0023,140.005,45.000,34156.45781,1.90934,405.679,32.062,45.069,45.000,0.00,0.09,-272.72,-272.78,1,963,-1,20.3,9.5,-12.9,20.2,9.7,-12.8,5.73,2.02,-9.7,25.2
2015-05-22 01:26:00,0.0,1.90351,0.00037,404.102,0.132,0.3033,0.0019,139.993,45.000,34157.77684,1.90924,405.597,32.034,45.069,45.000,0.00,0.09,-272.71,-272.77,1,964,-1,20.3,9.5,-12.9,20.2,9.7,-12.8,5.73,2.03,-9.7,25.2
2015-05-22 01:27:00,0.0,1.90351,0.00033,403.787,0.040,0.3074,0.0019,140.002,44.999,34160.86853,1.90933,405.296,32.012,45.068,45.000,0.00,0.09,-272.72,-272.78,1,965,-1,20.3,9.6,-12.8,20.2,9.8,-12.7,5.73,1.98,-9.7,25.2
2015-05-22 01:28:00,0.0,1.90331,0.00030,403.806,0.038,0.3073,0.0022,140.000,45.000,34161.90530,1.90910,405.312,32.002,45.068,45.000,0.00,0.09,-272.72,-272.78,1,963,-1,20.3,9.6,-12.8,20.2,9.8,-12.6,5.73,1.95,-9.6,25.2
2015-05-22 01:29:00,0.0,1.90305,0.00037,403.867,0.039,0.3049,0.0019,139.997,45.000,34164.13694,1.90887,405.357,31.998,45.068,45.000,0.00,0.09,-272.72,-272.78,1,964,-1,20.3,9.5,-12.9,20.2,9.7,-12.7,5.73,1.94,-9.6,25.2
2015-05-22 01:30:00,0.0,1.90329,0.00029,403.959,0.057,0.3077,0.0019,139.999,45.000,34164.96251,1.90904,405.462,31.974,45.068,45.000,0.00,0.09,-272.72,-272.78,0,964,-1,20.3,9.6,-12.8,20.2,9.8,-12.6,5.73,1.96,-9.6,25.2
2015-05-22 01:31:00,0.0,1.90346,0.00052,404.080,0.076,0.3063,0.0011,140.000,45.000,34163.57531,1.90928,405.581,31.963,45.068,45.000,0.00,0.09,-272.72,-272.79,-0,966,-1,20.3,9.6,-12.8,20.2,9.8,-12.7,5.73,2.01,-9.7,25.2
2015-05-22 01:32:00,0.0,1.90317,0.00029,404.032,0.209,0.3073,0.0022,140.002,45.000,34167.06716,1.90899,405.525,31.948,45.068,45.000,0.00,0.09,-272.72,-272.78,-0,966,-1,20.3,9.6,-12.8,20.2,9.8,-12.7,5.73,2.03,-9.6,25.2
2015-05-22 01:33:00,0.0,1.90280,0.00031,404.127,0.164,0.3071,0.0024,140.000,45.000,34168.37832,1.90858,405.645,31.941,45.068,45.000,0.00,0.09,-272.72,-272.78,0,967,-1,20.3,9.6,-12.8,20.2,9.8,-12.7,5.73,2.02,-9.6,25.2
2015-05-22 01:34:00,0.0,1.90284,0.00031,403.807,0.120,0.3070,0.0017,140.006,45.000,34170.83416,1.90868,405.320,31.928,45.068,45.000,0.00,0.09,-272.73,-272.78,0,965,-1,20.3,9.6,-12.8,20.2,9.8,-12.7,5.73,1.99,-9.6,25.1
2015-05-22 01:35:00,0.0,1.90278,0.00038,403.975,0.154,0.3051,0.0019,139.999,45.000,34170.83874,1.90852,405.453,31.910,45.068,45.000,0.00,0.09,-272.72,-272.78,0,966,-1,20.3,9.5,-12.9,20.2,9.8,-12.7,5.73,1.97,-9.6,25.2
2015-05-22 01:36:00,0.0,1.90298,0.00035,404.395,0.181,0.3041,0.0025,139.997,45.000,34168.78002,1.90868,405.892,31.888,45.068,45.000,0.00,0.09,-272.72,-272.77,-1,967,-1,20.3,9.5,-12.9,20.2,9.7,-12.8,5.73,1.95,-9.6,25.2
2015-05-22 01:37:00,0.0,1.90324,0.00039,403.875,0.089,0.3032,0.0021,140.001,45.000,34169.80103,1.90902,405.367,31.888,45.068,45.000,0.00,0.09,-272.72,-272.78,-0,968,-1,20.3,9.4,-13.0,20.2,9.7,-12.8,5.73,1.94,-9.6,25.1
2015-05-22 01:38:00,0.0,1.90300,0.00047,403.864,0.074,0.3030,0.0021,139.996,45.000,34169.02884,1.90867,405.350,31.888,45.068,45.000,0.00,0.09,-272.72,-272.77,0,967,-1,20.4,9.4,-13.0,20.2,9.7,-12.8,5.73,1.97,-9.6,25.2
2015-05-22 01:39:00,0.0,1.90304,0.00032,403.753,0.021,0.2988,0.0013,140.006,45.000,34173.31739,1.90870,405.218,31.911,45.068,45.000,0.00,0.09,-272.72,-272.78,0,966,-1,20.3,9.3,-13.2,20.2,9.6,-12.9,5.73,2.01,-9.6,25.2
2015-05-22 01:40:00,0.0,1.90308,0.00031,403.804,0.043,0.2967,0.0021,139.996,45.000,34169.22594,1.90867,405.253,31.917,45.068,45.000,0.00,0.09,-272.72,-272.78,-0,967,-1,20.3,9.3,-13.2,20.2,9.5,-13.0,5.73,2.05,-9.6,25.2
2015-05-22 01:41:00,0.0,1.90307,0.00033,403.806,0.012,0.2958,0.0021,139.996,45.000,34169.54282,1.90867,405.256,31.934,45.068,45.000,0.00,0.09,-272.73,-272.79,-0,967,-1,20.3,9.2,-13.3,20.2,9.5,-13.1,5.73,2.03,-9.6,25.2
2015-05-22 01:42:00,0.0,1.90319,0.00034,403.800,0.044,0.2973,0.0020,140.000,45.000,34166.80566,1.90883,405.256,31.939,45.068,45.000,0.00,0.09,-272.72,-272.78,-0,965,-1,20.3,9.3,-13.2,20.2,9.5,-13.1,5.73,1.97,-9.6,25.2
2015-05-22 01:43:00,0.0,1.90315,0.00035,403.744,0.044,0.2998,0.0017,140.002,45.000,34166.65258,1.90878,405.214,31.965,45.068,45.000,0.00,0.09,-272.72,-272.78,-0,965,-1,20.3,9.4,-13.1,20.2,9.6,-13.0,5.73,1.93,-9.6,25.2
2015-05-22 01:44:00,0.0,1.90318,0.00029,403.739,0.027,0.3006,0.0014,140.001,45.000,34163.29466,1.90885,405.209,31.997,45.068,45.000,0.00,0.09,-272.72,-272.79,0,964,-1,20.3,9.4,-13.1,20.2,9.6,-12.9,5.73,1.98,-9.6,25.1
2015-05-22 01:45:00,0.0,1.90331,0.00037,403.767,0.047,0.2994,0.0017,139.996,45.000,34159.66774,1.90892,405.232,32.002,45.068,45.000,0.00,0.09,-272.72,-272.78,1,964,-1,20.3,9.3,-13.2,20.2,9.5,-13.0,5.73,2.05,-9.6,25.2
2015-05-22 01:46:00,0.0,1.90327,0.00042,403.761,0.040,0.2993,0.0016,139.999,45.000,34158.58139,1.90897,405.226,32.028,45.068,45.000,0.00,0.09,-272.71,-272.77,1,964,-1,20.3,9.3,-13.2,20.2,9.5,-13.0,5.73,2.03,-9.6,25.2